,,,PA_Meas_PMT16A,,PR_Meas_QMR101_102,,RH_Meas_QMH101,,SR_Meas_QMS101,,TA_Meas_QMH101,,GenWind,,GenWind,
date,time,status,PA,status,PR,status,RH,status,SR,status,TA,status,DirAvg,status,SpdAvg,
2009-12-06, 00:00:04,VALID,1010.67,VALID,0,VALID,56.6517,VALID,0,VALID,23.7135,VALID,52,VALID,0.484766,
2009-12-06, 00:01:04,VALID,1010.68,VALID,0,VALID,56.6822,VALID,0,VALID,23.6745,VALID,28,VALID,0.478516,
2009-12-06, 00:02:04,VALID,1010.68,VALID,0,VALID,56.6975,VALID,0,VALID,23.6745,VALID,28,VALID,0,
2009-12-06, 00:03:04,VALID,1010.68,VALID,0,VALID,56.667,VALID,0,VALID,23.694,VALID,28,VALID,0,
2009-12-06, 00:04:04,VALID,1010.66,VALID,0,VALID,56.6746,VALID,0,VALID,23.6745,VALID,56,VALID,0.622656,
2009-12-06, 00:05:04,VALID,1010.65,VALID,0,VALID,56.7204,VALID,0,VALID,23.655,VALID,57,VALID,0.710156,
2009-12-06, 00:06:04,VALID,1010.68,VALID,0,VALID,56.7051,VALID,0,VALID,23.655,VALID,80,VALID,0.899609,
2009-12-06, 00:07:04,VALID,1010.65,VALID,0,VALID,56.7051,VALID,0,VALID,23.6356,VALID,71,VALID,0.552734,
2009-12-06, 00:08:04,VALID,1010.66,VALID,0,VALID,56.6975,VALID,0,VALID,23.655,VALID,84,VALID,0.469531,
2009-12-06, 00:09:04,VALID,1010.66,VALID,0,VALID,56.7051,VALID,0,VALID,23.655,VALID,85,VALID,0.182422,
2009-12-06, 00:10:04,VALID,1010.65,VALID,0,VALID,56.6517,VALID,0,VALID,23.694,VALID,72,VALID,0.361328,
2009-12-06, 00:11:04,VALID,1010.68,VALID,0,VALID,56.667,VALID,0,VALID,23.6745,VALID,52,VALID,0.527734,
2009-12-06, 00:12:04,VALID,1010.67,VALID,0,VALID,56.7051,VALID,0,VALID,23.655,VALID,51,VALID,0.201953,
2009-12-06, 00:13:04,VALID,1010.64,VALID,0,VALID,56.6898,VALID,0,VALID,23.6532,VALID,51,VALID,0,
2009-12-06, 00:14:04,VALID,1010.63,VALID,0,VALID,56.7127,VALID,0,VALID,23.655,VALID,49,VALID,0,
2009-12-06, 00:15:04,VALID,1010.63,VALID,0,VALID,56.728,VALID,0,VALID,23.655,VALID,48,VALID,0,
2009-12-06, 00:16:04,VALID,1010.63,VALID,0,VALID,56.6975,VALID,0,VALID,23.694,VALID,49,VALID,0,
2009-12-06, 00:17:04,VALID,1010.59,VALID,0,VALID,56.7051,VALID,0,VALID,23.655,VALID,49,VALID,0,
2009-12-06, 00:18:04,VALID,1010.58,VALID,0,VALID,56.6975,VALID,0,VALID,23.655,VALID,75,VALID,0.526953,
2009-12-06, 00:19:04,VALID,1010.58,VALID,0,VALID,56.6898,VALID,0,VALID,23.6745,VALID,48,VALID,0.262891,
2009-12-06, 00:20:04,VALID,1010.56,VALID,0,VALID,56.7127,VALID,0,VALID,23.655,VALID,48,VALID,0.311719,
2009-12-06, 00:21:04,VALID,1010.55,VALID,0,VALID,56.6975,VALID,0,VALID,23.655,VALID,48,VALID,0.0191406,
2009-12-06, 00:22:04,VALID,1010.55,VALID,0,VALID,56.7127,VALID,0,VALID,23.6356,VALID,59,VALID,0.567578,
2009-12-06, 00:23:04,VALID,1010.53,VALID,0,VALID,56.6822,VALID,0,VALID,23.655,VALID,80,VALID,0.419531,
2009-12-06, 00:24:04,VALID,1010.53,VALID,0,VALID,56.6746,VALID,0,VALID,23.655,VALID,18,VALID,0.207031,
2009-12-06, 00:25:04,VALID,1010.52,VALID,0,VALID,56.728,VALID,0,VALID,23.655,VALID,40,VALID,0.482812,
2009-12-06, 00:26:04,VALID,1010.49,VALID,0,VALID,56.7127,VALID,0,VALID,23.6356,VALID,40,VALID,0.0542969,
2009-12-06, 00:27:04,VALID,1010.47,VALID,0,VALID,56.6898,VALID,0,VALID,23.655,VALID,39,VALID,0,
2009-12-06, 00:28:04,VALID,1010.48,VALID,0,VALID,56.6746,VALID,0,VALID,23.655,VALID,39,VALID,0,
2009-12-06, 00:29:04,VALID,1010.45,VALID,0,VALID,56.6517,VALID,0,VALID,23.6745,VALID,38,VALID,0,
2009-12-06, 00:30:04,VALID,1010.47,VALID,0,VALID,56.6822,VALID,0,VALID,23.6745,VALID,38,VALID,0,
2009-12-06, 00:31:04,VALID,1010.44,VALID,0,VALID,56.6975,VALID,0,VALID,23.655,VALID,38,VALID,0,
2009-12-06, 00:32:04,VALID,1010.44,VALID,0,VALID,56.6898,VALID,0,VALID,23.6763,VALID,39,VALID,0,
2009-12-06, 00:33:04,VALID,1010.42,VALID,0,VALID,56.6898,VALID,0,VALID,23.655,VALID,38,VALID,0,
2009-12-06, 00:34:04,VALID,1010.4,VALID,0,VALID,56.6975,VALID,0,VALID,23.655,VALID,360,VALID,0,
2009-12-06, 00:35:04,VALID,1010.41,VALID,0,VALID,56.7127,VALID,0,VALID,23.6356,VALID,360,VALID,0,
2009-12-06, 00:36:04,VALID,1010.41,VALID,0,VALID,56.6975,VALID,0,VALID,23.655,VALID,360,VALID,0,
2009-12-06, 00:37:04,VALID,1010.38,VALID,0,VALID,56.7051,VALID,0,VALID,23.655,VALID,360,VALID,0,
2009-12-06, 00:38:04,VALID,1010.35,VALID,0,VALID,56.7127,VALID,0,VALID,23.6161,VALID,20,VALID,0.183203,
2009-12-06, 00:39:04,VALID,1010.34,VALID,0,VALID,56.7204,VALID,0,VALID,23.6356,VALID,20,VALID,0,
2009-12-06, 00:40:04,VALID,1010.33,VALID,0,VALID,56.6593,VALID,0,VALID,23.6338,VALID,20,VALID,0,
2009-12-06, 00:41:04,VALID,1010.28,VALID,0,VALID,56.6898,VALID,0,VALID,23.655,VALID,20,VALID,0,
2009-12-06, 00:42:04,VALID,1010.27,VALID,0,VALID,56.6746,VALID,0,VALID,23.655,VALID,20,VALID,0,
2009-12-06, 00:43:04,VALID,1010.24,VALID,0,VALID,56.7051,VALID,0,VALID,23.655,VALID,20,VALID,0,
2009-12-06, 00:44:04,VALID,1010.24,VALID,0,VALID,56.6975,VALID,0,VALID,23.655,VALID,20,VALID,0,
2009-12-06, 00:45:04,VALID,1010.23,VALID,0,VALID,56.667,VALID,0,VALID,23.6745,VALID,20,VALID,0,
2009-12-06, 00:46:04,VALID,1010.23,VALID,0,VALID,56.6975,VALID,0,VALID,23.6745,VALID,48,VALID,0,
2009-12-06, 00:47:04,VALID,1010.2,VALID,0,VALID,56.6898,VALID,0,VALID,23.6356,VALID,49,VALID,0,
2009-12-06, 00:48:04,VALID,1010.19,VALID,0,VALID,56.6975,VALID,0,VALID,23.655,VALID,80,VALID,0,
2009-12-06, 00:49:04,VALID,1010.21,VALID,0,VALID,56.6822,VALID,0,VALID,23.6745,VALID,87,VALID,0,
2009-12-06, 00:50:04,VALID,1010.18,VALID,0,VALID,56.6517,VALID,0,VALID,23.655,VALID,87,VALID,0,
2009-12-06, 00:51:04,VALID,1010.17,VALID,0,VALID,56.6822,VALID,0,VALID,23.6745,VALID,87,VALID,0,
2009-12-06, 00:52:04,VALID,1010.16,VALID,0,VALID,56.7051,VALID,0,VALID,23.655,VALID,87,VALID,0,
2009-12-06, 00:53:04,VALID,1010.15,VALID,0,VALID,56.6975,VALID,0,VALID,23.6532,VALID,87,VALID,0,
2009-12-06, 00:54:04,VALID,1010.15,VALID,0,VALID,56.7204,VALID,0,VALID,23.6356,VALID,87,VALID,0,
2009-12-06, 00:55:04,VALID,1010.14,VALID,0,VALID,56.7051,VALID,0,VALID,23.6356,VALID,86,VALID,0,
2009-12-06, 00:56:04,VALID,1010.12,VALID,0,VALID,56.7356,VALID,0,VALID,23.6161,VALID,84,VALID,0.16875,
2009-12-06, 00:57:04,VALID,1010.1,VALID,0,VALID,56.7661,VALID,0,VALID,23.5966,VALID,64,VALID,0.423047,
2009-12-06, 00:58:04,VALID,1010.09,VALID,0,VALID,56.7356,VALID,0,VALID,23.6161,VALID,64,VALID,0.351563,
2009-12-06, 00:59:04,VALID,1010.07,VALID,0,VALID,56.7127,VALID,0,VALID,23.6356,VALID,64,VALID,0,
2009-12-06, 01:00:04,VALID,1010.06,VALID,0,VALID,56.7127,VALID,0,VALID,23.6161,VALID,64,VALID,0.348828,
2009-12-06, 01:01:04,VALID,1010.06,VALID,0,VALID,56.7051,VALID,0,VALID,23.6356,VALID,64,VALID,0.171094,
2009-12-06, 01:02:04,VALID,1010.05,VALID,0,VALID,56.6898,VALID,0,VALID,23.6356,VALID,64,VALID,0.13125,
2009-12-06, 01:03:04,VALID,1010.03,VALID,0,VALID,56.6746,VALID,0,VALID,23.655,VALID,64,VALID,0.0226563,
2009-12-06, 01:04:04,VALID,1010.01,VALID,0,VALID,56.7051,VALID,0,VALID,23.6356,VALID,61,VALID,0.341797,
2009-12-06, 01:05:04,VALID,1009.98,VALID,0,VALID,56.7127,VALID,0,VALID,23.655,VALID,61,VALID,0.0984375,
2009-12-06, 01:06:04,VALID,1009.98,VALID,0,VALID,56.7204,VALID,0,VALID,23.6161,VALID,61,VALID,0,
2009-12-06, 01:07:04,VALID,1009.97,VALID,0,VALID,56.7204,VALID,0,VALID,23.6161,VALID,61,VALID,0,
2009-12-06, 01:08:04,VALID,1009.94,VALID,0,VALID,56.6822,VALID,0,VALID,23.655,VALID,61,VALID,0,
2009-12-06, 01:09:04,VALID,1009.93,VALID,0,VALID,56.7127,VALID,0,VALID,23.6356,VALID,61,VALID,0,
2009-12-06, 01:10:04,VALID,1009.94,VALID,0,VALID,56.7127,VALID,0,VALID,23.6356,VALID,80,VALID,0,
2009-12-06, 01:11:04,VALID,1009.92,VALID,0,VALID,56.6746,VALID,0,VALID,23.655,VALID,81,VALID,0,
2009-12-06, 01:12:04,VALID,1009.9,VALID,0,VALID,56.7127,VALID,0,VALID,23.6161,VALID,91,VALID,0,
2009-12-06, 01:13:04,VALID,1009.89,VALID,0,VALID,56.728,VALID,0,VALID,23.5966,VALID,91,VALID,0,
2009-12-06, 01:14:04,VALID,1009.89,VALID,0,VALID,56.7432,VALID,0,VALID,23.6161,VALID,91,VALID,0,
2009-12-06, 01:15:04,VALID,1009.89,VALID,0,VALID,56.7204,VALID,0,VALID,23.6356,VALID,90,VALID,0,
2009-12-06, 01:16:04,VALID,1009.9,VALID,0,VALID,56.7051,VALID,0,VALID,23.6161,VALID,67,VALID,0,
2009-12-06, 01:17:04,VALID,1009.91,VALID,0,VALID,56.728,VALID,0,VALID,23.6161,VALID,72,VALID,0,
2009-12-06, 01:18:04,VALID,1009.88,VALID,0,VALID,56.7204,VALID,0,VALID,23.6161,VALID,89,VALID,0,
2009-12-06, 01:19:04,VALID,1009.92,VALID,0,VALID,56.7204,VALID,0,VALID,23.6161,VALID,79,VALID,0,
2009-12-06, 01:20:04,VALID,1009.86,VALID,0,VALID,56.6593,VALID,0,VALID,23.655,VALID,48,VALID,0,
2009-12-06, 01:21:04,VALID,1009.9,VALID,0,VALID,56.7051,VALID,0,VALID,23.6373,VALID,51,VALID,0,
2009-12-06, 01:22:04,VALID,1009.9,VALID,0,VALID,56.7356,VALID,0,VALID,23.6356,VALID,62,VALID,0,
2009-12-06, 01:23:04,VALID,1009.87,VALID,0,VALID,56.7051,VALID,0,VALID,23.6356,VALID,44,VALID,0,
2009-12-06, 01:24:04,VALID,1009.91,VALID,0,VALID,56.7204,VALID,0,VALID,23.6356,VALID,45,VALID,0,
2009-12-06, 01:25:04,VALID,1009.89,VALID,0,VALID,56.7509,VALID,0,VALID,23.6161,VALID,69,VALID,0,
2009-12-06, 01:26:04,VALID,1009.88,VALID,0,VALID,56.7585,VALID,0,VALID,23.5966,VALID,60,VALID,0,
2009-12-06, 01:27:04,VALID,1009.87,VALID,0,VALID,56.7432,VALID,0,VALID,23.5966,VALID,60,VALID,0,
2009-12-06, 01:28:04,VALID,1009.86,VALID,0,VALID,56.728,VALID,0,VALID,23.6161,VALID,60,VALID,0,
2009-12-06, 01:29:04,VALID,1009.87,VALID,0,VALID,56.6898,VALID,0,VALID,23.6356,VALID,86,VALID,0,
2009-12-06, 01:30:04,VALID,1009.86,VALID,0,VALID,56.6441,VALID,0,VALID,23.6745,VALID,69,VALID,0.0394531,
2009-12-06, 01:31:04,VALID,1009.85,VALID,0,VALID,56.6975,VALID,0,VALID,23.6356,VALID,77,VALID,0.639063,
2009-12-06, 01:32:04,VALID,1009.84,VALID,0,VALID,56.7585,VALID,0,VALID,23.6161,VALID,78,VALID,0.474219,
2009-12-06, 01:33:04,VALID,1009.81,VALID,0,VALID,56.7509,VALID,0,VALID,23.5966,VALID,86,VALID,0.922656,
2009-12-06, 01:34:04,VALID,1009.86,VALID,0,VALID,56.7432,VALID,0,VALID,23.5966,VALID,87,VALID,0.496484,
2009-12-06, 01:35:04,VALID,1009.81,VALID,0,VALID,56.6975,VALID,0,VALID,23.6356,VALID,82,VALID,0.315234,
2009-12-06, 01:36:04,VALID,1009.83,VALID,0,VALID,56.7051,VALID,0,VALID,23.6373,VALID,84,VALID,0.635156,
2009-12-06, 01:37:04,VALID,1009.79,VALID,0,VALID,56.6898,VALID,0,VALID,23.6356,VALID,81,VALID,0.632422,
2009-12-06, 01:38:04,VALID,1009.77,VALID,0,VALID,56.6822,VALID,0,VALID,23.655,VALID,59,VALID,0.337891,
2009-12-06, 01:39:04,VALID,1009.76,VALID,0,VALID,56.6975,VALID,0,VALID,23.6143,VALID,40,VALID,0.833594,
2009-12-06, 01:40:04,VALID,1009.74,VALID,0,VALID,56.6975,VALID,0,VALID,23.6161,VALID,78,VALID,0.416016,
2009-12-06, 01:41:04,VALID,1009.74,VALID,0,VALID,56.7204,VALID,0,VALID,23.5966,VALID,77,VALID,0.593359,
2009-12-06, 01:42:04,VALID,1009.7,VALID,0,VALID,56.7051,VALID,0,VALID,23.6161,VALID,84,VALID,0.483984,
2009-12-06, 01:43:04,VALID,1009.69,VALID,0,VALID,56.728,VALID,0,VALID,23.5966,VALID,84,VALID,0.523047,
2009-12-06, 01:44:04,VALID,1009.7,VALID,0,VALID,56.7509,VALID,0,VALID,23.5771,VALID,84,VALID,0.576953,
2009-12-06, 01:45:04,VALID,1009.66,VALID,0,VALID,56.7204,VALID,0,VALID,23.5966,VALID,84,VALID,0.021875,
2009-12-06, 01:46:04,VALID,1009.63,VALID,0,VALID,56.7356,VALID,0,VALID,23.5966,VALID,58,VALID,0.611328,
2009-12-06, 01:47:04,VALID,1009.61,VALID,0,VALID,56.7509,VALID,0,VALID,23.5771,VALID,86,VALID,0.539453,
2009-12-06, 01:48:04,VALID,1009.6,VALID,0,VALID,56.7661,VALID,0,VALID,23.5771,VALID,86,VALID,0.479297,
2009-12-06, 01:49:04,VALID,1009.6,VALID,0,VALID,56.7814,VALID,0,VALID,23.5381,VALID,67,VALID,0.367578,
2009-12-06, 01:50:04,VALID,1009.55,VALID,0,VALID,56.7585,VALID,0,VALID,23.5789,VALID,65,VALID,0.526953,
2009-12-06, 01:51:04,VALID,1009.54,VALID,0,VALID,56.7585,VALID,0,VALID,23.5576,VALID,59,VALID,0.141797,
2009-12-06, 01:52:04,VALID,1009.53,VALID,0,VALID,56.728,VALID,0,VALID,23.5966,VALID,60,VALID,0.00078125,
2009-12-06, 01:53:04,VALID,1009.56,VALID,0,VALID,56.728,VALID,0,VALID,23.5771,VALID,60,VALID,0.345313,
2009-12-06, 01:54:04,VALID,1009.55,VALID,0,VALID,56.7204,VALID,0,VALID,23.5966,VALID,61,VALID,0.415625,
2009-12-06, 01:55:04,VALID,1009.52,VALID,0,VALID,56.6975,VALID,0,VALID,23.5966,VALID,94,VALID,0,
2009-12-06, 01:56:04,VALID,1009.53,VALID,0,VALID,56.728,VALID,0,VALID,23.5771,VALID,97,VALID,0,
2009-12-06, 01:57:04,VALID,1009.52,VALID,0,VALID,56.6898,VALID,0,VALID,23.6161,VALID,94,VALID,0,
2009-12-06, 01:58:04,VALID,1009.55,VALID,0,VALID,56.6593,VALID,0,VALID,23.6161,VALID,91,VALID,1.12227,
2009-12-06, 01:59:04,VALID,1009.54,VALID,0,VALID,56.6975,VALID,0,VALID,23.5966,VALID,94,VALID,0.924219,
2009-12-06, 02:00:04,VALID,1009.52,VALID,0,VALID,56.7051,VALID,0,VALID,23.5966,VALID,89,VALID,0.541016,
2009-12-06, 02:01:04,VALID,1009.51,VALID,0,VALID,56.6898,VALID,0,VALID,23.6161,VALID,94,VALID,0.650391,
2009-12-06, 02:02:04,VALID,1009.51,VALID,0,VALID,56.7051,VALID,0,VALID,23.5966,VALID,98,VALID,1.07734,
2009-12-06, 02:03:04,VALID,1009.51,VALID,0,VALID,56.7204,VALID,0,VALID,23.5576,VALID,98,VALID,0.998438,
2009-12-06, 02:04:04,VALID,1009.48,VALID,0,VALID,56.7585,VALID,0,VALID,23.5576,VALID,92,VALID,1.10781,
2009-12-06, 02:05:04,VALID,1009.49,VALID,0,VALID,56.7356,VALID,0,VALID,23.5771,VALID,85,VALID,1.02109,
2009-12-06, 02:06:04,VALID,1009.48,VALID,0,VALID,56.7432,VALID,0,VALID,23.5771,VALID,81,VALID,0.734375,
2009-12-06, 02:07:04,VALID,1009.48,VALID,0,VALID,56.7432,VALID,0,VALID,23.5576,VALID,90,VALID,0.874609,
2009-12-06, 02:08:04,VALID,1009.47,VALID,0,VALID,56.7356,VALID,0,VALID,23.5576,VALID,98,VALID,0.814844,
2009-12-06, 02:09:04,VALID,1009.45,VALID,0,VALID,56.7432,VALID,0,VALID,23.5576,VALID,99,VALID,1.01836,
2009-12-06, 02:10:04,VALID,1009.44,VALID,0,VALID,56.7432,VALID,0,VALID,23.5381,VALID,99,VALID,1.22773,
2009-12-06, 02:11:04,VALID,1009.4,VALID,0,VALID,56.7509,VALID,0,VALID,23.5381,VALID,90,VALID,0.840625,
2009-12-06, 02:12:04,VALID,1009.42,VALID,0,VALID,56.7509,VALID,0,VALID,23.5381,VALID,100,VALID,0.809766,
2009-12-06, 02:13:04,VALID,1009.4,VALID,0,VALID,56.7509,VALID,0,VALID,23.5381,VALID,50,VALID,1.13086,
2009-12-06, 02:14:04,VALID,1009.39,VALID,0,VALID,56.7432,VALID,0,VALID,23.5381,VALID,54,VALID,0.478125,
2009-12-06, 02:15:04,VALID,1009.4,VALID,0,VALID,56.7432,VALID,0,VALID,23.5381,VALID,93,VALID,0.417969,
2009-12-06, 02:16:04,VALID,1009.38,VALID,0,VALID,56.6975,VALID,0,VALID,23.5558,VALID,74,VALID,0.335156,
2009-12-06, 02:17:04,VALID,1009.38,VALID,0,VALID,56.7737,VALID,0,VALID,23.5381,VALID,61,VALID,0.930078,
2009-12-06, 02:18:05,VALID,1009.38,VALID,0,VALID,56.7737,VALID,0,VALID,23.5186,VALID,8,VALID,0.494141,
2009-12-06, 02:19:05,VALID,1009.39,VALID,0,VALID,56.7585,VALID,0,VALID,23.5186,VALID,66,VALID,1.02109,
2009-12-06, 02:20:05,VALID,1009.4,VALID,0,VALID,56.789,VALID,0,VALID,23.5186,VALID,98,VALID,0.389844,
2009-12-06, 02:21:05,VALID,1009.4,VALID,0,VALID,56.7737,VALID,0,VALID,23.5186,VALID,97,VALID,0.369141,
2009-12-06, 02:22:05,VALID,1009.38,VALID,0,VALID,56.7432,VALID,0,VALID,23.5186,VALID,52,VALID,0.721875,
2009-12-06, 02:23:05,VALID,1009.39,VALID,0,VALID,56.7509,VALID,0,VALID,23.4992,VALID,109,VALID,0.75625,
2009-12-06, 02:24:05,VALID,1009.39,VALID,0,VALID,56.7737,VALID,0,VALID,23.4992,VALID,55,VALID,0.628125,
2009-12-06, 02:25:05,VALID,1009.42,VALID,0,VALID,56.7814,VALID,0,VALID,23.5399,VALID,97,VALID,0.51875,
2009-12-06, 02:26:05,VALID,1009.42,VALID,0,VALID,56.7814,VALID,0,VALID,23.5186,VALID,101,VALID,0.414453,
2009-12-06, 02:27:05,VALID,1009.41,VALID,0,VALID,56.7737,VALID,0,VALID,23.4992,VALID,101,VALID,0.560156,
2009-12-06, 02:28:05,VALID,1009.4,VALID,0,VALID,56.7737,VALID,0,VALID,23.5186,VALID,101,VALID,0.571484,
2009-12-06, 02:29:05,VALID,1009.39,VALID,0,VALID,56.7509,VALID,0,VALID,23.5381,VALID,101,VALID,0.630469,
2009-12-06, 02:30:05,VALID,1009.43,VALID,0,VALID,56.7127,VALID,0,VALID,23.5381,VALID,101,VALID,0.832812,
2009-12-06, 02:31:05,VALID,1009.37,VALID,0,VALID,56.789,VALID,0,VALID,23.4992,VALID,84,VALID,0.66875,
2009-12-06, 02:32:05,VALID,1009.38,VALID,0,VALID,56.7661,VALID,0,VALID,23.4992,VALID,117,VALID,1.04492,
2009-12-06, 02:33:05,VALID,1009.38,VALID,0,VALID,56.8042,VALID,0,VALID,23.4797,VALID,109,VALID,0.663672,
2009-12-06, 02:34:05,VALID,1009.39,VALID,0,VALID,56.7737,VALID,0,VALID,23.5204,VALID,88,VALID,0.682813,
2009-12-06, 02:35:05,VALID,1009.35,VALID,0,VALID,56.7814,VALID,0,VALID,23.4797,VALID,116,VALID,0.988672,
2009-12-06, 02:36:05,VALID,1009.37,VALID,0,VALID,56.7661,VALID,0,VALID,23.4797,VALID,92,VALID,0.927734,
2009-12-06, 02:37:05,VALID,1009.38,VALID,0,VALID,56.7204,VALID,0,VALID,23.5399,VALID,115,VALID,1.11289,
2009-12-06, 02:38:05,VALID,1009.34,VALID,0,VALID,56.7432,VALID,0,VALID,23.5186,VALID,87,VALID,0.847266,
2009-12-06, 02:39:05,VALID,1009.34,VALID,0,VALID,56.7356,VALID,0,VALID,23.4992,VALID,99,VALID,0.942969,
2009-12-06, 02:40:05,VALID,1009.35,VALID,0,VALID,56.728,VALID,0,VALID,23.4992,VALID,112,VALID,1.07656,
2009-12-06, 02:41:05,VALID,1009.35,VALID,0,VALID,56.7585,VALID,0,VALID,23.5009,VALID,107,VALID,1.1625,
2009-12-06, 02:42:05,VALID,1009.35,VALID,0,VALID,56.7814,VALID,0,VALID,23.4602,VALID,105,VALID,1.18867,
2009-12-06, 02:43:05,VALID,1009.31,VALID,0,VALID,56.7814,VALID,0,VALID,23.4815,VALID,112,VALID,0.383594,
2009-12-06, 02:44:05,VALID,1009.32,VALID,0,VALID,56.7509,VALID,0,VALID,23.5009,VALID,123,VALID,0.676172,
2009-12-06, 02:45:05,VALID,1009.32,VALID,0,VALID,56.6975,VALID,0,VALID,23.5399,VALID,118,VALID,0.775781,
2009-12-06, 02:46:05,VALID,1009.32,VALID,0,VALID,56.7051,VALID,0,VALID,23.5594,VALID,123,VALID,0.747266,
2009-12-06, 02:47:05,VALID,1009.32,VALID,0,VALID,56.7127,VALID,0,VALID,23.5186,VALID,118,VALID,0.427344,
2009-12-06, 02:48:05,VALID,1009.31,VALID,0,VALID,56.7051,VALID,0,VALID,23.5381,VALID,96,VALID,0.939453,
2009-12-06, 02:49:05,VALID,1009.31,VALID,0,VALID,56.7432,VALID,0,VALID,23.4797,VALID,90,VALID,0.717188,
2009-12-06, 02:50:05,VALID,1009.28,VALID,0,VALID,56.7585,VALID,0,VALID,23.4602,VALID,96,VALID,1.48125,
2009-12-06, 02:51:05,VALID,1009.28,VALID,0,VALID,56.7661,VALID,0,VALID,23.4602,VALID,97,VALID,0.978906,
2009-12-06, 02:52:05,VALID,1009.29,VALID,0,VALID,56.7509,VALID,0,VALID,23.4797,VALID,95,VALID,1.12031,
2009-12-06, 02:53:05,VALID,1009.29,VALID,0,VALID,56.7432,VALID,0,VALID,23.4602,VALID,93,VALID,1.48203,
2009-12-06, 02:54:05,VALID,1009.21,VALID,0,VALID,56.7432,VALID,0,VALID,23.4602,VALID,88,VALID,1.42539,
2009-12-06, 02:55:05,VALID,1009.26,VALID,0,VALID,56.7814,VALID,0,VALID,23.4407,VALID,98,VALID,1.15742,
2009-12-06, 02:56:05,VALID,1009.23,VALID,0,VALID,56.7661,VALID,0,VALID,23.4602,VALID,80,VALID,1.15,
2009-12-06, 02:57:05,VALID,1009.25,VALID,0,VALID,56.7661,VALID,0,VALID,23.4407,VALID,107,VALID,0.982031,
2009-12-06, 02:58:05,VALID,1009.26,VALID,0,VALID,56.7585,VALID,0,VALID,23.4407,VALID,97,VALID,0.900781,
2009-12-06, 02:59:05,VALID,1009.27,VALID,0,VALID,56.7585,VALID,0,VALID,23.4602,VALID,124,VALID,0.674609,
2009-12-06, 03:00:05,VALID,1009.29,VALID,0,VALID,56.7127,VALID,0,VALID,23.4797,VALID,55,VALID,0.111719,
2009-12-06, 03:01:05,VALID,1009.25,VALID,0,VALID,56.7204,VALID,0,VALID,23.4602,VALID,83,VALID,0.744922,
2009-12-06, 03:02:05,VALID,1009.28,VALID,0,VALID,56.728,VALID,0,VALID,23.4602,VALID,99,VALID,1.02461,
2009-12-06, 03:03:05,VALID,1009.31,VALID,0,VALID,56.7509,VALID,0,VALID,23.462,VALID,100,VALID,1.15313,
2009-12-06, 03:04:05,VALID,1009.31,VALID,0,VALID,56.7585,VALID,0,VALID,23.4407,VALID,92,VALID,0.9625,
2009-12-06, 03:05:05,VALID,1009.31,VALID,0,VALID,56.7661,VALID,0,VALID,23.4212,VALID,88,VALID,0.547266,
2009-12-06, 03:06:05,VALID,1009.31,VALID,0,VALID,56.728,VALID,0,VALID,23.4425,VALID,68,VALID,0.653516,
2009-12-06, 03:07:05,VALID,1009.31,VALID,0,VALID,56.7585,VALID,0,VALID,23.4212,VALID,69,VALID,0.627344,
2009-12-06, 03:08:05,VALID,1009.31,VALID,0,VALID,56.7127,VALID,0,VALID,23.462,VALID,85,VALID,0.646484,
2009-12-06, 03:09:05,VALID,1009.32,VALID,0,VALID,56.7204,VALID,0,VALID,23.4212,VALID,95,VALID,1.16602,
2009-12-06, 03:10:05,VALID,1009.31,VALID,0,VALID,56.7356,VALID,0,VALID,23.4425,VALID,99,VALID,1.04922,
2009-12-06, 03:11:05,VALID,1009.32,VALID,0,VALID,56.7051,VALID,0,VALID,23.4389,VALID,80,VALID,0.716797,
2009-12-06, 03:12:05,VALID,1009.3,VALID,0,VALID,56.7204,VALID,0.105969,VALID,23.4389,VALID,86,VALID,0.807031,
2009-12-06, 03:13:05,VALID,1009.32,VALID,0,VALID,56.6898,VALID,0,VALID,23.4389,VALID,81,VALID,1.06055,
2009-12-06, 03:14:05,VALID,1009.33,VALID,0,VALID,56.6746,VALID,0.105969,VALID,23.4584,VALID,93,VALID,0.938281,
2009-12-06, 03:15:05,VALID,1009.34,VALID,0,VALID,56.7127,VALID,0.105969,VALID,23.4584,VALID,81,VALID,1.07227,
2009-12-06, 03:16:05,VALID,1009.34,VALID,0,VALID,56.7127,VALID,0.105969,VALID,23.4194,VALID,89,VALID,1.24961,
2009-12-06, 03:17:05,VALID,1009.36,VALID,0,VALID,56.6975,VALID,0.105969,VALID,23.4584,VALID,87,VALID,0.922266,
2009-12-06, 03:18:05,VALID,1009.39,VALID,0,VALID,56.7127,VALID,0,VALID,23.4389,VALID,105,VALID,1.34063,
2009-12-06, 03:19:05,VALID,1009.4,VALID,0,VALID,56.728,VALID,0.105969,VALID,23.4194,VALID,87,VALID,1.3582,
2009-12-06, 03:20:05,VALID,1009.43,VALID,0,VALID,56.7204,VALID,0.105969,VALID,23.4194,VALID,93,VALID,1.06445,
2009-12-06, 03:21:05,VALID,1009.43,VALID,0,VALID,56.7051,VALID,0.105969,VALID,23.4389,VALID,91,VALID,0.900781,
2009-12-06, 03:22:05,VALID,1009.45,VALID,0,VALID,56.7051,VALID,0.105969,VALID,23.4389,VALID,80,VALID,1.01719,
2009-12-06, 03:23:05,VALID,1009.5,VALID,0,VALID,56.6975,VALID,0.105969,VALID,23.4407,VALID,68,VALID,0.711719,
2009-12-06, 03:24:05,VALID,1009.5,VALID,0,VALID,56.7356,VALID,0.105969,VALID,23.4,VALID,91,VALID,0.846484,
2009-12-06, 03:25:05,VALID,1009.48,VALID,0,VALID,56.6975,VALID,0.105969,VALID,23.4389,VALID,86,VALID,0.849219,
2009-12-06, 03:26:05,VALID,1009.51,VALID,0,VALID,56.7204,VALID,0.105969,VALID,23.4407,VALID,83,VALID,1.21953,
2009-12-06, 03:27:05,VALID,1009.5,VALID,0,VALID,56.7204,VALID,0.105969,VALID,23.4194,VALID,106,VALID,1.38437,
2009-12-06, 03:28:05,VALID,1009.5,VALID,0,VALID,56.6822,VALID,0.105969,VALID,23.4584,VALID,101,VALID,0.957031,
2009-12-06, 03:29:05,VALID,1009.51,VALID,0,VALID,56.6288,VALID,0.105969,VALID,23.4566,VALID,67,VALID,0.660156,
2009-12-06, 03:30:05,VALID,1009.52,VALID,0,VALID,56.6593,VALID,0.105969,VALID,23.4389,VALID,66,VALID,0.943359,
2009-12-06, 03:31:05,VALID,1009.49,VALID,0,VALID,56.7051,VALID,0.105969,VALID,23.4407,VALID,51,VALID,0.492188,
2009-12-06, 03:32:05,VALID,1009.51,VALID,0,VALID,56.6746,VALID,0.105969,VALID,23.4194,VALID,61,VALID,0.828516,
2009-12-06, 03:33:05,VALID,1009.51,VALID,0,VALID,56.6517,VALID,0.105969,VALID,23.4389,VALID,67,VALID,0.758203,
2009-12-06, 03:34:05,VALID,1009.48,VALID,0,VALID,56.667,VALID,0.105969,VALID,23.4194,VALID,75,VALID,0.838281,
2009-12-06, 03:35:05,VALID,1009.5,VALID,0,VALID,56.6593,VALID,0.105969,VALID,23.4194,VALID,73,VALID,0.914453,
2009-12-06, 03:36:05,VALID,1009.49,VALID,0,VALID,56.6441,VALID,0.105969,VALID,23.4389,VALID,82,VALID,0.628125,
2009-12-06, 03:37:05,VALID,1009.5,VALID,0,VALID,56.6212,VALID,0.105969,VALID,23.4584,VALID,79,VALID,0.698047,
2009-12-06, 03:38:05,VALID,1009.5,VALID,0,VALID,56.6365,VALID,0.105969,VALID,23.4602,VALID,106,VALID,1.38398,
2009-12-06, 03:39:05,VALID,1009.51,VALID,0,VALID,56.6212,VALID,0.105969,VALID,23.4602,VALID,81,VALID,0.790234,
2009-12-06, 03:40:05,VALID,1009.52,VALID,0,VALID,56.6212,VALID,0.105969,VALID,23.4584,VALID,73,VALID,0.939844,
2009-12-06, 03:41:05,VALID,1009.5,VALID,0,VALID,56.6212,VALID,0,VALID,23.4407,VALID,102,VALID,0.803906,
2009-12-06, 03:42:05,VALID,1009.52,VALID,0,VALID,56.606,VALID,0,VALID,23.4602,VALID,83,VALID,1,
2009-12-06, 03:43:05,VALID,1009.51,VALID,0,VALID,56.5831,VALID,0,VALID,23.4602,VALID,90,VALID,0.914844,
2009-12-06, 03:44:05,VALID,1009.54,VALID,0,VALID,56.6136,VALID,0,VALID,23.4407,VALID,108,VALID,1.27031,
2009-12-06, 03:45:05,VALID,1009.51,VALID,0,VALID,56.6136,VALID,0,VALID,23.4407,VALID,114,VALID,1.36719,
2009-12-06, 03:46:05,VALID,1009.51,VALID,0,VALID,56.6212,VALID,0,VALID,23.4602,VALID,100,VALID,1.06172,
2009-12-06, 03:47:05,VALID,1009.49,VALID,0,VALID,56.606,VALID,0,VALID,23.4407,VALID,82,VALID,1.10664,
2009-12-06, 03:48:05,VALID,1009.51,VALID,0,VALID,56.606,VALID,0,VALID,23.4602,VALID,104,VALID,0.662109,
2009-12-06, 03:49:05,VALID,1009.51,VALID,0,VALID,56.5755,VALID,0,VALID,23.4602,VALID,107,VALID,0.772656,